Temp
-13 -14 -13 -14 -13 -13 -13 -13 -13 -14 -14 -13 -13 -13 -13 -13 -13 -13 -13 -13 -12 -12 -12 -12 -12 -12 -12 -12 -11 -11 -11 -11 -11 -11 -11 -12 -12 -12 -12 -12 -12 -12 -12 -12 -12 -12 -12
-13 -14 -13 -13 -14 -14 -13 -14 -14 -14 -13 -13 -13 -13 -13 -13 -13 -13 -13 -13 -12 -12 -13 -12 -12 -12 -12 -12 -12 -11 -11 -11 -11 -11 -11 -11 -12 -12 -12 -12 -12 -12 -12 -12 -12 -12 -12
-14 -14 -14 -14 -14 -14 -14 -14 -14 -14 -13 -14 -14 -14 -13 -13 -13 -13 -13 -12 -12 -12 -12 -12 -12 -13 -12 -12 -12 -12 -12 -11 -11 -11 -12 -12 -11 -12 -12 -12 -12 -12 -12 -12 -12 -13 -13
-14 -14 -15 -14 -14 -14 -14 -14 -14 -14 -14 -14 -14 -14 -14 -14 -14 -14 -13 -13 -12 -13 -13 -13 -13 -12 -13 -13 -13 -12 -12 -12 -12 -12 -11 -12 -12 -12 -13 -12 -12 -12 -12 -12 -12 -13 -13
-15 -14 -14 -14 -14 -14 -14 -14 -14 -15 -15 -14 -14 -14 -15 -14 -14 -14 -14 -14 -13 -13 -13 -13 -13 -13 -13 -13 -13 -13 -13 -13 -13 -13 -12 -12 -12 -13 -13 -13 -13 -13 -13 -12 -12 -12 -12
-15 -15 -15 -15 -15 -14 -14 -14 -16 -16 -16 -16 -15 -15 -15 -14 -14 -14 -14 -14 -13 -13 -13 -14 -13 -13 -13 -13 -14 -13 -13 -13 -13 -13 -13 -13 -13 -13 -14 -14 -14 -13 -13 -13 -13 -12 -12
-16 -16 -16 -16 -16 -16 -16 -16 -16 -16 -16 -16 -16 -16 -15 -15 -15 -14 -14 -14 -14 -13 -14 -14 -13 -13 -14 -14 -14 -14 -14 -14 -14 -14 -14 -13 -13 -13 -13 -13 -14 -14 -13 -13 -13 -13 -12
-17 -17 -17 -17 -17 -17 -17 -17 -17 -17 -17 -17 -17 -16 -16 -16 -16 -15 -15 -15 -15 -14 -13 -14 -14 -13 -14 -14 -14 -14 -14 -14 -14 -14 -14 -14 -13 -14 -13 -13 -14 -14 -14 -14 -13 -13 -13
-19 -19 -18 -18 -18 -18 -17 -17 -17 -17 -17 -17 -17 -16 -16 -16 -16 -16 -15 -15 -15 -15 -14 -13 -14 -13 -14 -14 -14 -14 -14 -14 -14 -14 -14 -14 -14 -14 -14 -14 -14 -14 -14 -14 -14 -14 -13
-20 -20 -20 -19 -19 -18 -18 -18 -18 -18 -18 -17 -17 -17 -17 -17 -16 -16 -16 -16 -16 -15 -14 -13 -14 -13 -14 -14 -13 -15 -15 -15 -14 -14 -15 -14 -14 -14 -14 -14 -14 -14 -15 -15 -14 -14 -14
-20 -20 -20 -20 -20 -20 -19 -19 -19 -18 -18 -18 -18 -18 -18 -17 -17 -17 -17 -16 -16 -15 -15 -14 -13 -13 -14 -15 -15 -15 -15 -16 -15 -15 -16 -14 -14 -15 -15 -15 -15 -15 -15 -15 -15 -15 -15
-21 -21 -21 -21 -20 -20 -20 -19 -19 -19 -19 -19 -19 -19 -19 -18 -18 -18 -17 -17 -16 -16 -15 -15 -14 -15 -15 -16 -16 -16 -16 -16 -16 -16 -16 -15 -16 -15 -16 -16 -16 -16 -16 -16 -15 -15 -15
-21 -20 -20 -20 -20 -19 -19 -19 -19 -19 -19 -19 -19 -19 -19 -19 -19 -18 -18 -18 -18 -17 -16 -16 -16 -17 -17 -17 -17 -17 -17 -16 -17 -17 -16 -16 -16 -17 -16 -17 -17 -18 -18 -17 -17 -16 -15
-21 -21 -21 -20 -20 -20 -20 -20 -20 -20 -20 -21 -21 -20 -19 -19 -19 -19 -19 -19 -18 -17 -18 -18 -18 -18 -19 -18 -18 -18 -18 -18 -18 -18 -18 -18 -17 -18 -17 -17 -17 -17 -18 -18 -17 -17 -16
-23 -22 -21 -21 -21 -21 -21 -22 -22 -22 -21 -21 -21 -20 -20 -20 -20 -20 -20 -19 -18 -19 -19 -19 -20 -20 -19 -20 -20 -20 -19 -18 -19 -19 -19 -19 -18 -19 -18 -19 -19 -18 -18 -18 -18 -18 -17
-23 -23 -23 -23 -22 -22 -21 -22 -22 -22 -22 -21 -21 -21 -21 -21 -21 -21 -20 -19 -20 -20 -20 -20 -21 -21 -20 -20 -21 -20 -20 -19 -20 -20 -21 -20 -20 -19 -19 -19 -19 -19 -18 -18 -18 -18 -18
-23 -23 -23 -23 -23 -22 -22 -22 -22 -23 -23 -22 -22 -22 -21 -21 -21 -21 -20 -20 -20 -21 -21 -21 -21 -21 -21 -21 -21 -21 -20 -21 -21 -22 -22 -21 -22 -20 -21 -20 -20 -20 -19 -19 -18 -18 -18
-24 -24 -23 -23 -23 -23 -22 -22 -23 -23 -22 -22 -22 -22 -22 -22 -22 -21 -20 -20 -21 -21 -21 -21 -21 -21 -21 -22 -22 -22 -22 -22 -23 -23 -23 -23 -23 -21 -21 -21 -20 -19 -19 -19 -19 -19 -19
-24 -24 -24 -23 -23 -23 -23 -23 -23 -23 -23 -23 -22 -23 -22 -22 -21 -21 -20 -21 -21 -21 -21 -21 -21 -22 -22 -22 -23 -23 -22 -22 -23 -23 -23 -23 -23 -22 -22 -21 -21 -20 -19 -19 -19 -19 -19
-25 -25 -24 -24 -24 -23 -23 -23 -24 -24 -24 -23 -23 -23 -22 -22 -21 -21 -21 -21 -21 -21 -21 -22 -22 -22 -22 -23 -24 -23 -23 -23 -23 -23 -24 -23 -23 -22 -22 -22 -22 -21 -21 -20 -20 -20 -19
-26 -26 -25 -24 -24 -24 -24 -24 -24 -24 -24 -24 -23 -23 -22 -22 -21 -22 -22 -21 -21 -21 -22 -22 -22 -22 -23 -23 -24 -24 -24 -23 -23 -23 -24 -24 -23 -23 -22 -22 -22 -22 -21 -21 -21 -20 -20
-26 -27 -26 -25 -24 -24 -24 -24 -25 -25 -24 -24 -23 -23 -23 -22 -22 -21 -21 -21 -22 -22 -23 -22 -23 -23 -23 -23 -24 -24 -24 -24 -24 -24 -24 -23 -23 -23 -22 -22 -22 -22 -21 -21 -21 -21 -21
-27 -26 -27 -25 -25 -25 -25 -24 -25 -25 -25 -24 -24 -23 -23 -23 -22 -22 -21 -22 -22 -22 -22 -23 -23 -22 -23 -23 -24 -24 -24 -24 -24 -24 -23 -23 -22 -23 -22 -22 -22 -22 -21 -21 -21 -22 -21
-27 -27 -26 -26 -26 -26 -25 -25 -25 -25 -25 -24 -24 -24 -23 -23 -22 -23 -23 -23 -22 -22 -22 -23 -23 -22 -24 -23 -24 -24 -24 -24 -24 -23 -23 -23 -22 -22 -22 -22 -22 -22 -21 -22 -22 -22 -21
-28 -27 -27 -26 -26 -26 -26 -26 -26 -25 -25 -25 -24 -24 -23 -23 -23 -23 -23 -23 -22 -22 -22 -23 -23 -23 -23 -23 -23 -24 -24 -24 -23 -24 -23 -23 -23 -23 -23 -23 -22 -22 -22 -22 -22 -22 -23
-28 -28 -27 -26 -26 -26 -27 -26 -26 -26 -26 -25 -25 -24 -24 -23 -23 -23 -23 -23 -24 -23 -23 -23 -23 -23 -23 -24 -23 -23 -23 -23 -23 -23 -23 -23 -23 -23 -23 -23 -23 -23 -23 -22 -23 -22 -22
-29 -28 -28 -27 -26 -26 -26 -26 -26 -26 -26 -26 -25 -25 -24 -23 -23 -23 -23 -23 -23 -23 -23 -23 -23 -23 -23 -23 -23 -23 -23 -23 -23 -23 -23 -23 -23 -23 -23 -23 -23 -23 -22 -22 -23 -23 -23
-29 -29 -28 -28 -27 -27 -27 -27 -27 -27 -26 -26 -25 -25 -24 -23 -23 -23 -23 -23 -23 -23 -23 -23 -23 -23 -23 -23 -23 -23 -23 -23 -23 -23 -23 -23 -23 -23 -23 -23 -23 -23 -23 -24 -23 -23 -23
-29 -30 -28 -28 -27 -27 -27 -27 -27 -27 -26 -26 -25 -25 -24 -23 -23 -23 -24 -23 -24 -23 -23 -23 -23 -23 -23 -23 -23 -23 -23 -23 -23 -23 -23 -23 -23 -24 -23 -23 -23 -24 -24 -23 -23 -23 -22
Height
5742 5746 5749 5750 5753 5757 5759 5760 5764 5766 5767 5770 5772 5771 5774 5776 5776 5777 5779 5781 5782 5783 5785 5787 5786 5788 5790 5789 5790 5792 5792 5793 5793 5795 5795 5796 5796 5796 5796 5796 5798 5801 5801 5802 5802 5802 5803
5731 5734 5739 5741 5743 5746 5751 5752 5754 5758 5759 5761 5763 5766 5766 5766 5768 5770 5772 5774 5775 5777 5779 5780 5782 5782 5783 5785 5785 5785 5787 5788 5789 5789 5789 5790 5790 5790 5792 5792 5792 5795 5797 5796 5797 5796 5797
5719 5723 5726 5729 5731 5736 5739 5740 5744 5747 5750 5752 5753 5755 5757 5757 5760 5761 5766 5768 5768 5770 5773 5773 5775 5777 5777 5778 5779 5780 5781 5782 5783 5782 5783 5784 5784 5784 5786 5787 5788 5789 5791 5791 5789 5791 5790
5706 5709 5714 5717 5723 5724 5727 5729 5730 5735 5738 5741 5745 5746 5747 5750 5751 5753 5758 5760 5761 5763 5765 5766 5767 5771 5773 5772 5774 5773 5776 5775 5776 5777 5777 5778 5778 5779 5780 5780 5782 5782 5785 5785 5785 5785 5784
5691 5696 5697 5703 5709 5712 5716 5719 5723 5721 5726 5730 5734 5737 5738 5741 5743 5747 5748 5750 5754 5757 5759 5760 5761 5762 5765 5766 5767 5767 5767 5770 5770 5771 5772 5773 5773 5774 5775 5775 5775 5776 5777 5778 5778 5779 5779
5674 5679 5683 5688 5693 5699 5701 5707 5709 5713 5716 5718 5723 5726 5729 5731 5733 5736 5740 5744 5745 5748 5751 5751 5753 5756 5758 5759 5759 5760 5761 5762 5763 5765 5766 5767 5768 5769 5771 5769 5769 5770 5771 5771 5771 5772 5772
5658 5663 5670 5675 5679 5685 5690 5694 5699 5702 5705 5707 5711 5714 5717 5720 5723 5727 5731 5734 5738 5739 5740 5744 5745 5747 5749 5752 5753 5753 5753 5754 5756 5757 5759 5760 5762 5765 5763 5761 5762 5764 5764 5765 5764 5764 5764
5645 5650 5655 5661 5667 5672 5678 5683 5685 5689 5694 5698 5700 5703 5706 5708 5712 5716 5719 5721 5725 5728 5732 5735 5736 5738 5740 5742 5744 5744 5744 5746 5746 5747 5749 5752 5754 5753 5755 5756 5757 5756 5756 5758 5757 5755 5757
5631 5636 5640 5647 5653 5659 5665 5669 5672 5678 5681 5683 5687 5691 5695 5697 5701 5705 5707 5710 5713 5715 5719 5727 5726 5729 5730 5728 5731 5733 5732 5733 5735 5737 5739 5741 5742 5743 5744 5746 5748 5749 5748 5748 5748 5747 5748
5615 5621 5627 5634 5641 5647 5651 5656 5660 5663 5666 5672 5675 5680 5683 5684 5691 5693 5695 5698 5700 5702 5705 5713 5714 5716 5715 5716 5718 5721 5722 5724 5724 5727 5728 5730 5731 5733 5734 5735 5736 5738 5739 5737 5736 5736 5738
5599 5605 5613 5621 5629 5634 5640 5645 5648 5652 5656 5659 5664 5666 5670 5672 5677 5681 5684 5686 5688 5693 5695 5699 5700 5703 5704 5704 5706 5707 5709 5710 5713 5716 5717 5721 5719 5721 5721 5722 5721 5727 5726 5725 5726 5726 5727
5585 5590 5598 5606 5614 5620 5627 5631 5635 5638 5642 5649 5652 5655 5658 5661 5665 5669 5672 5675 5678 5684 5685 5684 5687 5688 5688 5691 5693 5696 5697 5698 5701 5701 5704 5706 5708 5710 5713 5713 5712 5714 5714 5713 5712 5714 5714
5569 5576 5584 5593 5601 5608 5614 5618 5622 5626 5629 5634 5638 5641 5646 5649 5653 5657 5660 5663 5668 5672 5677 5672 5675 5676 5676 5676 5679 5681 5684 5684 5686 5687 5690 5693 5697 5697 5698 5699 5702 5702 5704 5701 5701 5699 5706
5556 5563 5571 5579 5588 5594 5600 5605 5608 5611 5615 5621 5626 5632 5636 5640 5641 5646 5649 5653 5657 5663 5665 5665 5663 5661 5663 5664 5667 5669 5669 5673 5675 5675 5675 5677 5683 5685 5690 5689 5689 5692 5693 5694 5688 5690 5695
5540 5549 5559 5568 5575 5582 5586 5592 5596 5600 5605 5610 5616 5621 5626 5629 5629 5633 5639 5643 5649 5653 5652 5654 5652 5649 5652 5653 5653 5654 5656 5657 5660 5663 5661 5661 5666 5670 5675 5675 5677 5679 5680 5686 5681 5681 5680
5526 5535 5545 5555 5564 5571 5576 5580 5585 5588 5593 5599 5604 5610 5616 5618 5620 5625 5629 5636 5640 5643 5641 5641 5641 5640 5642 5644 5641 5642 5644 5647 5648 5650 5648 5650 5649 5655 5659 5661 5666 5668 5672 5671 5669 5669 5670
5512 5523 5532 5542 5553 5560 5565 5568 5572 5576 5581 5588 5594 5600 5605 5607 5611 5615 5620 5628 5630 5632 5631 5630 5629 5630 5635 5634 5632 5632 5632 5636 5638 5639 5637 5640 5636 5644 5645 5651 5653 5657 5659 5660 5660 5657 5661
5498 5509 5519 5529 5539 5547 5554 5560 5561 5565 5572 5578 5584 5590 5593 5597 5603 5607 5614 5618 5621 5621 5620 5621 5621 5621 5622 5621 5619 5619 5623 5625 5628 5628 5626 5629 5627 5629 5634 5639 5641 5642 5647 5650 5647 5649 5651
5485 5495 5505 5517 5527 5535 5541 5549 5550 5555 5562 5567 5573 5578 5582 5588 5594 5600 5605 5607 5608 5610 5611 5612 5612 5612 5610 5610 5605 5609 5612 5618 5616 5619 5620 5625 5619 5621 5622 5629 5631 5632 5639 5640 5640 5639 5640
5474 5483 5493 5504 5515 5524 5530 5537 5540 5546 5552 5558 5564 5569 5574 5580 5587 5589 5593 5597 5599 5600 5600 5599 5601 5599 5598 5599 5597 5598 5601 5604 5607 5611 5614 5613 5613 5615 5618 5620 5622 5625 5628 5630 5630 5630 5634
5460 5472 5482 5494 5503 5512 5520 5527 5531 5537 5543 5549 5554 5560 5566 5571 5578 5579 5581 5588 5589 5590 5589 5588 5588 5587 5584 5583 5585 5587 5590 5595 5599 5604 5606 5606 5607 5607 5610 5612 5614 5617 5620 5620 5621 5625 5625
5448 5460 5470 5481 5493 5502 5511 5517 5522 5529 5534 5540 5546 5552 5557 5561 5563 5567 5572 5579 5581 5579 5578 5580 5577 5574 5570 5572 5579 5581 5581 5585 5589 5595 5596 5597 5599 5599 5602 5604 5605 5608 5611 5613 5613 5615 5617
5440 5447 5459 5469 5482 5492 5500 5509 5514 5520 5527 5533 5538 5543 5548 5552 5555 5556 5563 5567 5568 5564 5569 5571 5566 5563 5561 5570 5569 5572 5573 5577 5581 5585 5589 5592 5592 5595 5596 5597 5598 5599 5604 5603 5605 5608 5611
5433 5441 5448 5459 5470 5481 5490 5497 5505 5512 5518 5524 5530 5535 5540 5544 5546 5551 5554 5555 5556 5554 5555 5556 5554 5554 5558 5557 5561 5564 5566 5570 5575 5579 5582 5585 5588 5589 5590 5589 5588 5593 5593 5595 5598 5600 5602
5424 5433 5441 5449 5458 5469 5478 5486 5496 5503 5510 5516 5521 5526 5529 5535 5540 5544 5545 5544 5543 5541 5541 5543 5548 5549 5549 5552 5556 5559 5561 5565 5570 5574 5577 5580 5581 5583 5583 5583 5584 5583 5586 5589 5590 5593 5595
5416 5425 5433 5441 5448 5458 5467 5477 5486 5493 5500 5507 5513 5518 5523 5526 5533 5536 5537 5536 5536 5534 5534 5538 5540 5542 5543 5548 5552 5554 5557 5562 5566 5569 5572 5575 5577 5578 5577 5579 5578 5580 5581 5582 5584 5589 5593
5410 5418 5426 5434 5441 5449 5458 5467 5476 5483 5491 5499 5506 5511 5514 5519 5527 5529 5530 5532 5532 5532 5533 5534 5535 5538 5541 5544 5548 5551 5554 5558 5560 5563 5567 5570 5571 5572 5574 5572 5572 5574 5576 5579 5583 5590 5589
5404 5412 5420 5427 5435 5443 5451 5459 5468 5476 5483 5491 5499 5503 5508 5513 5520 5521 5524 5527 5528 5530 5532 5534 5534 5536 5540 5543 5546 5548 5551 5555 5557 5559 5562 5564 5565 5567 5568 5568 5569 5572 5573 5577 5580 5582 5583
5400 5408 5415 5422 5429 5436 5444 5452 5461 5470 5477 5484 5491 5496 5501 5506 5514 5514 5518 5522 5526 5527 5529 5530 5534 5535 5538 5540 5542 5545 5549 5552 5554 5554 5558 5559 5561 5562 5562 5562 5564 5566 5570 5573 5576 5577 5578
Wind_Speed
48 49 49 47 44 48 43 40 41 41 43 46 47 44 44 46 42 42 39 38 35 33 33 36 32 34 31 29 29 29 29 28 27 30 30 28 28 30 28 27 27 24 25 26 25 25 24
55 53 53 52 49 49 50 48 46 48 50 50 50 52 49 47 44 43 39 39 41 41 42 39 35 33 31 28 26 26 27 27 28 28 30 31 28 27 30 29 26 24 25 28 27 28 26
60 58 58 57 55 53 53 50 50 50 51 52 52 52 48 47 52 47 47 42 41 39 37 34 34 32 30 29 27 28 26 28 28 28 28 30 30 27 28 30 27 26 25 28 29 27 28
65 62 62 60 60 57 57 57 56 53 55 52 52 49 46 42 41 40 40 40 40 38 32 32 34 34 29 29 29 30 25 28 28 30 29 27 29 26 27 30 28 28 27 26 26 27 27
70 68 66 66 65 60 65 61 60 52 52 52 51 50 46 45 41 42 41 41 39 40 36 32 34 35 30 34 33 30 30 30 29 31 31 29 29 29 26 26 29 27 28 26 26 26 28
69 68 67 66 64 65 62 61 55 52 50 52 52 50 49 47 46 46 46 45 44 44 41 38 38 38 35 33 35 35 32 31 32 33 32 33 32 31 28 31 34 28 28 28 29 29 29
68 65 64 62 60 60 57 56 56 56 56 54 52 49 49 49 49 49 48 49 49 50 47 44 44 41 39 36 35 39 41 39 35 34 34 37 37 34 38 40 35 33 34 33 31 33 33
68 66 64 63 62 60 58 57 56 57 55 54 51 50 50 49 50 50 50 51 51 53 53 48 49 47 44 41 42 40 41 42 41 41 41 39 38 37 40 40 40 38 36 33 35 36 37
69 68 66 65 63 61 59 58 58 56 55 53 52 52 52 52 52 52 52 52 52 53 53 49 48 48 45 49 46 45 46 46 45 45 43 42 43 42 43 43 42 40 38 35 38 40 41
68 66 65 63 62 60 59 58 56 56 55 54 54 55 54 54 54 54 54 54 54 54 54 51 49 50 52 51 51 49 48 48 49 48 48 48 45 45 45 47 45 45 42 41 42 42 42
65 65 62 62 60 58 59 59 58 58 57 53 51 49 47 48 50 51 53 53 54 53 54 55 56 54 53 55 56 55 52 52 52 51 51 52 53 50 51 48 45 47 46 45 46 45 44
72 65 63 60 58 56 56 55 53 53 54 59 60 57 56 54 53 53 51 52 53 52 54 55 55 55 55 54 51 52 54 54 54 57 57 57 53 54 50 46 46 48 50 49 48 49 52
70 73 72 72 73 70 69 69 68 65 62 60 55 51 50 51 51 51 52 53 52 52 54 57 54 55 56 56 55 55 54 58 54 54 57 59 59 58 60 58 54 50 48 51 53 53 51
59 56 56 55 56 61 64 61 55 50 50 50 48 51 50 49 51 51 51 51 53 53 52 51 51 52 53 52 53 53 56 57 57 58 57 57 58 55 57 59 56 54 48 46 48 48 48
61 59 55 53 49 47 47 47 50 51 52 51 51 51 50 50 50 49 49 51 51 49 47 43 40 40 41 39 41 44 47 54 51 50 54 54 60 55 52 47 46 49 51 47 47 47 49
59 57 55 52 49 48 50 52 55 53 52 51 49 49 49 48 46 44 46 48 45 38 36 35 34 37 39 39 45 47 46 50 48 45 41 46 52 49 47 45 44 46 45 46 48 48 47
63 61 58 56 54 54 55 56 56 53 52 51 50 49 45 44 43 43 46 41 36 33 32 35 39 40 40 43 46 49 53 50 45 39 37 40 45 47 44 40 40 42 43 46 49 48 46
62 61 59 57 56 56 57 57 56 53 51 49 47 45 45 44 43 43 40 36 35 35 37 39 42 44 44 45 48 48 47 48 43 39 36 31 36 41 42 40 42 43 44 44 45 43 43
63 61 59 57 55 55 54 54 54 51 48 47 46 45 45 45 44 40 36 36 36 37 40 42 43 42 42 43 47 46 45 39 41 36 32 30 36 33 33 40 42 40 45 51 48 47 47
65 61 59 57 54 54 53 52 52 49 47 47 46 46 46 45 41 38 38 37 36 37 41 43 43 43 43 41 41 42 40 38 35 32 30 34 37 39 36 33 32 38 38 40 43 42 42
66 66 61 58 55 54 52 50 49 48 47 47 47 47 45 45 38 37 39 39 39 42 41 40 44 49 48 45 41 39 37 33 31 30 28 33 32 35 30 37 35 32 28 28 36 38 38
57 69 60 62 58 55 53 51 49 49 48 47 48 46 44 43 42 41 39 38 39 40 38 42 37 39 40 39 33 33 32 30 27 28 27 28 25 22 35 27 27 30 25 30 29 34 35
49 49 69 60 61 58 55 54 49 48 49 46 46 46 44 43 41 41 39 38 39 41 42 31 35 37 38 25 30 30 29 27 27 27 26 25 18 25 23 19 25 34 23 30 29 32 34
53 49 47 65 64 58 56 57 52 49 48 48 47 45 44 41 40 35 36 39 42 42 41 37 40 32 21 30 30 31 27 25 26 27 27 24 26 29 20 26 29 29 29 28 27 30 33
48 50 44 47 59 66 61 55 53 50 46 45 44 43 40 40 37 35 33 37 40 43 33 39 38 27 24 27 28 29 27 25 26 29 26 27 27 24 32 37 35 37 31 26 30 25 21
47 49 48 44 48 57 60 61 53 49 43 41 39 39 41 40 37 31 30 29 23 22 31 38 34 26 26 26 26 28 28 26 25 25 21 20 23 27 33 37 38 37 30 25 22 15 15
47 47 47 47 42 48 50 51 51 50 53 48 40 41 40 40 29 27 25 24 23 16 19 25 24 23 25 27 27 26 27 25 25 24 22 25 30 25 27 29 34 29 26 23 14 11 15
46 46 40 41 40 43 44 42 40 39 38 37 37 37 37 33 26 25 31 24 19 13 14 18 20 20 20 23 24 24 24 23 24 21 18 18 20 19 21 23 18 15 12 12 14 12 13
44 38 37 36 36 37 37 39 40 39 37 35 32 33 32 30 23 26 31 28 19 13 14 16 18 21 21 22 22 21 19 21 18 19 21 20 17 17 18 14 10 11 14 16 13 14 15
Wind_Direction
254 255 255 255 255 259 258 255 260 259 263 269 273 276 274 269 272 271 268 268 268 265 270 279 275 269 273 267 272 275 280 275 272 271 270 271 271 268 265 267 270 273 272 273 271 272 265
252 253 256 256 253 254 257 259 259 264 265 265 267 273 272 265 268 267 265 266 268 264 271 278 269 266 267 267 269 273 277 274 274 272 271 270 268 269 269 267 267 264 265 267 264 263 265
252 252 254 255 253 257 257 257 260 262 262 265 266 271 274 266 260 263 266 268 265 265 270 276 263 267 263 262 267 269 273 279 276 271 264 269 272 267 265 268 269 263 262 262 260 261 259
253 250 252 254 257 255 256 258 260 261 261 260 264 266 269 267 264 264 268 268 267 265 267 269 270 265 265 262 264 266 269 272 275 272 265 266 268 266 263 265 263 264 263 262 261 260 259
249 250 247 250 253 253 252 254 259 255 255 258 260 263 260 259 261 262 261 261 266 265 266 265 266 268 261 262 261 264 265 269 270 270 269 266 266 265 261 259 257 254 255 254 255 256 259
249 249 249 249 251 252 251 254 251 253 254 257 260 259 260 260 261 261 262 265 262 263 263 263 261 263 263 258 257 258 261 266 268 267 267 266 262 262 260 255 251 250 248 249 254 259 259
246 247 249 250 250 252 251 251 251 253 255 255 259 257 256 259 259 260 262 262 263 262 262 265 265 262 264 262 257 257 258 264 262 261 269 268 266 264 261 257 255 253 252 256 256 255 257
246 247 247 248 249 250 250 251 252 254 257 258 257 257 259 258 260 262 263 264 264 263 262 264 265 264 263 262 262 259 256 256 256 258 265 268 268 262 262 262 259 255 255 261 261 262 260
245 246 246 247 248 248 249 250 251 254 254 254 254 256 258 260 262 264 264 267 266 266 265 262 264 265 264 262 259 254 255 255 255 257 258 259 260 260 259 259 259 258 256 262 264 267 266
245 246 247 247 248 249 249 251 252 253 253 255 255 257 258 260 262 263 263 263 264 264 263 263 257 257 260 258 259 256 251 254 255 255 256 256 257 257 256 255 258 258 261 261 264 266 269
245 245 247 248 248 248 249 252 253 254 256 256 257 257 258 259 261 261 260 260 260 260 263 263 264 262 259 258 258 257 254 252 253 255 254 257 258 251 249 249 251 257 259 260 263 265 265
242 244 244 244 245 245 246 247 248 249 253 258 259 260 259 258 257 256 258 260 260 260 260 260 264 264 264 263 261 260 261 258 256 254 254 255 256 254 247 254 259 257 259 261 265 265 263
248 247 247 247 246 248 250 252 253 254 255 255 253 253 254 256 257 256 256 258 258 255 261 262 262 263 265 266 264 260 259 260 262 260 257 255 253 250 251 257 257 260 262 261 258 256 264
244 244 244 243 245 246 248 248 247 246 248 247 248 250 252 253 257 258 261 261 256 259 263 267 267 266 268 269 268 269 266 263 263 266 265 261 256 257 258 260 264 261 259 259 257 257 260
242 243 242 238 235 238 234 239 240 243 248 252 252 252 252 256 257 258 259 261 263 265 266 269 266 267 270 274 277 275 273 270 268 268 267 267 262 261 259 259 257 258 255 256 261 260 260
238 239 240 238 236 234 236 237 242 246 250 251 250 252 255 256 256 255 256 259 263 268 262 261 266 271 275 281 283 283 279 274 273 270 266 265 264 259 255 255 253 254 255 254 255 257 256
234 235 236 236 236 238 240 244 246 249 248 251 251 257 249 245 248 252 258 263 259 257 260 266 271 277 280 282 280 278 276 274 269 267 264 259 255 254 249 247 249 248 253 257 256 255 257
230 231 233 233 233 233 236 240 244 246 248 248 246 243 242 246 251 256 259 260 256 257 262 271 275 278 280 279 274 270 268 267 269 265 262 252 262 253 250 243 244 242 241 249 249 249 254
228 229 229 230 230 232 233 236 238 239 240 239 237 238 243 248 254 260 259 256 258 266 271 274 274 277 280 277 272 268 262 261 257 260 264 249 260 253 243 240 237 244 247 243 251 253 254
228 227 228 227 228 230 230 231 233 234 234 234 235 239 245 251 257 259 258 259 263 266 271 274 276 275 270 269 271 266 259 254 250 255 254 253 253 252 248 258 250 251 254 256 255 251 264
222 226 228 228 227 227 227 228 230 231 230 234 238 243 249 254 257 260 258 259 259 270 278 276 278 279 270 261 256 257 257 255 248 250 256 251 257 257 253 250 259 255 258 262 264 262 261
231 224 227 227 226 226 228 227 228 231 233 238 243 249 254 260 258 261 259 258 262 273 271 276 272 265 265 253 249 246 250 249 249 245 247 255 262 270 250 259 259 254 262 274 266 261 261
224 229 224 223 227 227 229 231 231 235 240 245 247 250 259 260 259 261 266 267 270 268 270 260 251 254 248 245 239 240 239 238 240 245 248 248 250 256 247 265 269 265 260 264 270 266 266
221 226 227 226 224 226 231 233 234 237 241 245 249 254 253 254 258 264 267 269 269 272 273 231 244 255 228 231 235 236 233 232 230 238 245 251 240 249 262 284 278 277 271 265 267 264 248
217 222 226 225 226 227 228 232 234 239 241 245 250 249 252 255 257 259 264 268 278 275 249 232 244 236 223 230 231 229 223 229 232 237 244 247 244 254 275 279 283 285 276 268 262 235 217
219 221 225 225 224 225 228 231 231 234 237 237 241 247 248 253 254 259 264 269 255 256 233 229 238 216 214 227 232 232 228 229 236 242 243 251 244 262 275 271 274 275 270 248 226 211 233
221 224 225 226 224 222 226 229 234 236 237 238 237 239 243 248 249 248 257 229 243 248 234 228 219 219 218 226 233 234 235 237 227 239 259 268 274 272 269 269 269 261 256 225 217 226 245
222 225 221 222 223 221 221 222 223 226 226 229 230 235 239 240 232 246 223 230 232 220 224 226 224 227 228 228 236 244 243 238 245 249 258 271 258 256 262 266 249 230 202 215 227 250 266
223 222 216 218 214 217 220 223 224 223 224 222 222 227 229 232 226 237 222 228 224 222 228 229 228 232 225 233 236 234 237 238 247 257 263 252 251 272 286 260 226 201 226 228 240 266 276